TimeHST,TemperatureF,Dew PointF,Humidity,Sea Level PressureIn,VisibilityMPH,Wind Direction,Wind SpeedMPH,Gust SpeedMPH,PrecipitationIn,Events,Conditions,WindDirDegrees,DateUTC
12:57 AM,77.0,66.9,71,29.98,10.0,Variable,5.8,-,N/A,,Clear,0,2012-10-22 10:57:00
1:52 AM,77.0,66.2,69,29.98,10.0,East,8.1,-,N/A,,Mostly Cloudy,80,2012-10-22 11:52:00
1:57 AM,77.0,66.0,69,29.97,10.0,East,6.9,-,N/A,,Mostly Cloudy,90,2012-10-22 11:57:00
2:29 AM,77.0,66.2,69,29.98,6.2,ENE,8.1,-,N/A,,Mostly Cloudy,70,2012-10-22 12:29:00
2:57 AM,77.0,66.9,71,29.96,10.0,East,6.9,16.1,N/A,,Mostly Cloudy,80,2012-10-22 12:57:00
3:09 AM,77.0,66.2,69,29.97,6.2,Variable,4.6,-,N/A,,Scattered Clouds,0,2012-10-22 13:09:00
3:16 AM,77.0,66.2,69,29.97,6.2,East,9.2,-,N/A,,Mostly Cloudy,80,2012-10-22 13:16:00
3:41 AM,77.0,66.2,69,29.97,6.2,East,6.9,17.3,N/A,,Mostly Cloudy,80,2012-10-22 13:41:00
3:57 AM,77.0,66.9,71,29.95,10.0,East,5.8,-,N/A,,Mostly Cloudy,80,2012-10-22 13:57:00
4:57 AM,75.2,68.0,78,29.96,10.0,East,9.2,-,N/A,,Partly Cloudy,80,2012-10-22 14:57:00
5:57 AM,75.2,66.0,73,29.97,10.0,Variable,6.9,-,N/A,,Scattered Clouds,0,2012-10-22 15:57:00
6:57 AM,75.2,66.0,73,29.98,10.0,ESE,3.5,-,N/A,,Clear,110,2012-10-22 16:57:00
7:57 AM,78.8,68.0,69,30.00,10.0,ENE,9.2,-,N/A,,Partly Cloudy,70,2012-10-22 17:57:00
8:57 AM,79.2,66.9,66,30.01,10.0,East,10.4,-,N/A,,Scattered Clouds,80,2012-10-22 18:57:00
9:57 AM,79.7,68.0,67,30.01,10.0,East,9.2,16.1,N/A,,Mostly Cloudy,80,2012-10-22 19:57:00
10:57 AM,81.5,66.9,61,30.00,10.0,ENE,9.2,16.1,N/A,,Scattered Clouds,60,2012-10-22 20:57:00
11:05 AM,82.4,68.0,62,30.01,6.2,ENE,9.2,17.3,N/A,,Mostly Cloudy,60,2012-10-22 21:05:00
11:20 AM,82.4,68.0,62,30.00,6.2,ENE,10.4,18.4,N/A,,Scattered Clouds,70,2012-10-22 21:20:00
11:57 AM,81.5,68.0,63,29.97,10.0,East,9.2,17.3,N/A,,Partly Cloudy,80,2012-10-22 21:57:00
12:57 PM,82.4,66.9,59,29.95,10.0,East,10.4,18.4,N/A,,Mostly Cloudy,90,2012-10-22 22:57:00
1:57 PM,82.8,68.0,61,29.92,10.0,ENE,10.4,18.4,N/A,,Mostly Cloudy,70,2012-10-22 23:57:00
2:57 PM,81.5,66.9,61,29.91,10.0,East,10.4,-,N/A,,Scattered Clouds,100,2012-10-23 00:57:00
3:57 PM,79.2,66.7,66,29.90,10.0,ENE,11.5,18.4,N/A,,Partly Cloudy,70,2012-10-23 01:57:00
4:57 PM,79.2,66.0,64,29.91,10.0,East,8.1,17.3,N/A,,Mostly Cloudy,80,2012-10-23 02:57:00
5:57 PM,77.7,66.9,69,29.92,10.0,East,9.2,19.6,N/A,,Mostly Cloudy,80,2012-10-23 03:57:00
6:57 PM,77.4,64.9,65,29.94,10.0,East,10.4,17.3,N/A,,Mostly Cloudy,90,2012-10-23 04:57:00
7:57 PM,77.0,66.0,69,29.96,10.0,East,9.2,23.0,N/A,,Clear,100,2012-10-23 05:57:00
8:57 PM,76.3,64.9,68,29.98,10.0,East,8.1,-,N/A,,Scattered Clouds,80,2012-10-23 06:57:00
9:57 PM,75.9,66.0,71,29.98,10.0,East,6.9,16.1,N/A,,Scattered Clouds,90,2012-10-23 07:57:00
10:57 PM,75.9,66.9,74,29.98,10.0,East,9.2,16.1,N/A,,Scattered Clouds,80,2012-10-23 08:57:00
11:57 PM,75.6,66.0,72,29.97,10.0,East,6.9,-,N/A,,Overcast,80,2012-10-23 09:57:00